Location: Melbourne
(37.8120°S, 144.9677°E)
Time: 09:38:55
(UTC+10:00)

Daily predictions for brighter satellites

Satellite Brightness Start Highest point End
(mag) Time Altitude Azimuth Time Altitude Azimuth Time Altitude Azimuth
YAOGAN 1 3.6 18:06:32 10° SE 18:10:13 26° E 18:13:51 10° NNE
COSMO-SKYMED 1 4.3 18:06:43 10° NNW 18:10:49 40° W 18:14:59 10° SSW
Meteor 1-27 4.4 18:10:53 10° S 18:16:42 57° ESE 18:22:21 10° NNE
SJ-12 3.9 18:14:54 10° SSE 18:19:05 68° E 18:23:13 10° N
Cosmos 1891 Rocket 4.4 18:14:03 10° S 18:20:10 65° E 18:26:08 10° NNE
Coronas F rocket 1.8 18:20:21 10° NNW 18:22:07 40° W 18:23:55 10° S
GP-B 3.2 18:17:48 10° S 18:22:20 89° WSW 18:26:49 10° N
AQUARIUS 4.3 18:22:46 10° SSE 18:27:16 56° E 18:31:42 10° N
Cosmos 1464 Rocket 4.1 18:21:24 10° S 18:27:40 89° W 18:33:55 10° N
Meteor 1-11 4.3 18:22:05 10° N 18:27:55 87° E 18:33:50 10° S
MSX 3.9 18:26:16 10° SSE 18:32:06 65° ENE 18:37:51 10° N
Cosmos 1300 4.0 18:30:02 10° SSW 18:33:46 46° W 18:37:29 10° NNW
Tsikada Rocket 4.1 18:29:27 10° N 18:35:47 65° E 18:42:08 10° SSE
Cosmos 1726 4.1 18:33:25 10° SSW 18:36:50 33° W 18:40:12 10° NNW
IRS-1A Rocket 4.2 18:33:07 10° SSE 18:38:50 82° ENE 18:44:23 10° NNW
Cosmos 1666 Rocket 4.2 18:38:21 10° NNE 18:42:28 36° E 18:46:38 10° SSE
COSMOS 2428 4.0 18:39:47 10° S 18:43:53 20° SE 18:45:24 18° ESE
SMAP 3.0 18:40:14 10° SSE 18:44:58 87° E 18:49:40 10° NNW
Tiangong 1 3.0 18:42:48 10° W 18:45:19 25° NNW 18:47:47 10° NNE
Cosmos 1484 Rocket 2.7 18:42:46 10° SSE 18:46:31 56° E 18:50:12 10° N
CZ-4 R/B 1.6 18:43:27 10° S 18:47:39 76° WSW 18:51:42 10° NNW
Cosmos 2322 Rocket 2.5 18:42:55 10° SSW 18:48:36 71° WNW 18:54:12 10° NNE
NOSS 3-1 (C) 3.9 18:43:17 10° SSW 18:49:17 38° SE 18:52:59 19° ENE
USA 229 DEB 3.7 18:43:45 10° SSW 18:50:49 89° SE 18:57:42 10° NNE
USA 229 3.7 18:43:51 10° SSW 18:50:56 89° ESE 18:57:48 10° NNE
Cosmos 1833 4.2 18:47:07 10° NNW 18:52:53 75° ENE 18:58:46 10° SSE
SPOT 3 Rocket 3.6 18:48:13 10° SSE 18:53:28 61° ENE 18:58:37 10° N
Cosmos 1151 Rocket 4.4 18:50:17 10° SSW 18:54:30 43° W 18:58:40 10° NNW
Abrixas 3.8 18:52:42 10° SSW 18:55:05 23° SSE 18:55:07 23° SSE
CZ-4 R/B 4.4 18:50:51 10° SSE 18:55:05 70° ENE 18:59:16 10° N
Gbstr 26 Del rocket 3.5 18:51:13 10° SW 18:56:08 89° SE 19:01:40 13° NE
Cosmos 1634 Rocket 4.3 18:50:46 10° S 18:56:42 43° ESE 19:02:36 10° NNE
Cosmos 2360 Rocket 2.3 18:53:47 10° SSW 18:59:21 54° ESE 19:04:51 10° NE
Cosmos 1190 Rocket 4.1 18:55:12 10° N 19:00:15 50° ENE 19:05:20 10° SSE
ATLAS 2AS CENTAUR R/B 4.4 18:59:36 10° SSE 19:01:14 11° SSE 19:02:01 11° SE
CZ-2C R/B 3.8 18:58:05 10° S 19:02:46 42° WSW 19:07:31 10° NW
NOSS 3-1 (A) 4.0 18:57:15 10° SSW 19:03:11 36° SE 19:05:24 27° E
Cosmos 1805 Rocket 3.6 19:00:19 10° N 19:04:43 82° W 19:09:10 10° S
Cosmos 2322 3.8 18:59:43 10° SSW 19:05:22 52° ESE 19:09:59 15° NE
SL-24 R/B - RUBIN 2 3.3 19:06:42 10° NNW 19:10:57 89° ENE 19:13:26 24° SSE
Sich 1 2.9 19:06:43 10° N 19:11:02 74° E 19:15:23 10° S
Cosmos 1356 3.6 19:10:03 10° N 19:13:12 52° ENE 19:13:12 52° ENE
Cosmos 407 Rocket 3.4 19:09:43 10° N 19:14:47 60° ENE 19:19:01 15° SSE
SL-16 R/B 3.5 19:10:18 10° SW 19:15:38 41° WNW 19:20:56 10° N
IDEFIX/ARIANE 42P 4.5 19:11:33 10° S 19:16:08 30° WSW 19:20:40 10° NW
GPS 2-05 Rocket1 2.9 19:13:00 10° W 19:16:20 60° N 19:16:35 57° NNE
Cosmos 1626 4.1 19:18:15 10° NW 19:21:36 30° WSW 19:25:00 10° SSW
Helios 1B rocket 2.3 19:17:46 10° NNE 19:21:54 76° ESE 19:26:07 10° S
Cosmos 2333 Rocket 3.9 19:20:22 10° S 19:22:42 17° SSE 19:22:42 17° SSE
Cosmos 2219 3.3 19:19:54 10° N 19:25:26 54° ENE 19:27:34 35° SE
Cosmos 1455 3.1 19:22:14 10° SSW 19:26:06 51° W 19:29:53 10° N
USA 215 3.8 19:28:25 34° ESE 19:30:06 40° SSE 19:36:09 10° SSW
NOAA 12 4.1 19:26:02 10° SSE 19:31:20 54° E 19:36:31 10° N
Cosmos 1869 3.2 19:28:57 10° S 19:33:01 85° W 19:34:09 46° N
Cosmos 2237 Rocket 4.2 19:29:33 10° SSE 19:30:39 13° SSE 19:30:39 13° SSE
Cosmos 2279 Rocket 4.0 19:32:36 10° S 19:38:50 55° E 19:40:09 47° ENE
Geosat 4.4 19:54:30 50° S 19:54:30 50° S 19:58:25 10° SSW
METEOR-M 4.3 19:54:40 10° S 20:00:04 73° WSW 20:05:25 10° NNW
Cosmos 2219 Rocket 3.5 20:00:07 10° SSW 20:02:59 28° S 20:02:59 28° S
ATLAS CENTAUR R/B 4.2 20:14:53 10° SSW 20:15:29 13° S 20:15:29 13° S
COSMOS 2428 3.4 20:22:57 10° SSW 20:27:28 50° WSW 20:27:28 50° WSW
ATLAS 2AS CENTAUR R/B 4.3 20:47:34 10° SSW 20:49:28 20° SSW 20:49:28 20° SSW
